Nuiqsut, AK

10:45 PM AKDT on May 21, 2018 (GMT -0800)
Nuiqsut

Weather History for PAQT - January, 2013

Change the Weather History Date:

Friday, January 18, 2013

  Actual Average (PAKU) Record (PAKU)
Temperature  
Mean Temperature -24 °F -  
Max Temperature -20 °F -8 °F 30 °F (2018)
Min Temperature -29 °F -16 °F -52 °F (1989)
Degree Days  
Heating Degree Days 90    
Moisture  
Dew Point -28 °F    
Average Humidity 80    
Maximum Humidity 83    
Minimum Humidity 75    
Precipitation  
Precipitation 0.00 in - - ()
Sea Level Pressure  
Sea Level Pressure 30.80 in    
Wind  
Wind Speed 13 mph (WSW)    
Max Wind Speed 18 mph    
Max Gust Speed -    
Visibility 6 miles    
Events      
Averages and records for this station are not official NWS values.
T = Trace of Precipitation, MM = Missing Value Source: NWS Daily Summary

Daily Weather History Graph

Daily Weather History Graph

Search for Another Location

Airport or City:

Astronomy

Jan. 18, 2013 Rise Set
Actual Time 12:35 PM AKST 1:54 PM AKST
Civil Twilight 10:13 AM AKST 4:16 PM AKST
Nautical Twilight 8:43 AM AKST 5:46 PM AKST
Astronomical Twilight 7:28 AM AKST 7:02 PM AKST
Moon 10:15 AM AKST (1/18) 2:47 AM AKST (1/18)
Length of Visible Light 6h 03m
Length of Day
1h 18m
Waxing Crescent, 49% of the Moon is Illuminated
Jan 18
Waxing Crescent
Jan 18
First Quarter
Jan 26
Full
Feb 3
Last Quarter
Feb 9
New

Hourly Weather History & Observations

Time (AKST) Temp. Windchill Dew Point Humidity Pressure Visibility Wind Dir Wind Speed Gust Speed Precip Events Conditions
12:12 AM -29.2 °F - - N/A% 30.67 in 2.5 mi North - - N/A   Mostly Cloudy
12:41 AM -29.2 °F -57.6 °F -34.6 °F 75% 30.68 in 2.5 mi SW 16.1 mph - N/A   Haze
12:53 AM -29.0 °F -58.2 °F -34.1 °F 77% 30.69 in 2.5 mi SW 17.3 mph - N/A   Haze
1:26 AM -27.4 °F -56.9 °F -32.8 °F 75% 30.68 in 2.5 mi WSW 18.4 mph - N/A   Haze
1:53 AM -27.9 °F -55.1 °F -33.0 °F 77% 30.69 in 2.5 mi WSW 15.0 mph - N/A   Haze
2:20 AM -29.2 °F -56.8 °F -34.6 °F 75% 30.69 in 2.5 mi WSW 15.0 mph - N/A   Haze
2:25 AM -29.2 °F -57.6 °F -32.8 °F 83% 30.69 in 3.0 mi WSW 16.1 mph - N/A   Mostly Cloudy
3:53 AM -29.0 °F -57.4 °F -34.1 °F 77% 30.71 in 4.0 mi SW 16.1 mph - N/A   Haze
4:20 AM -27.4 °F -55.3 °F -32.8 °F 75% 30.70 in 4.0 mi WSW 16.1 mph - N/A   Haze
4:36 AM -29.2 °F -56.8 °F -32.8 °F 83% 30.71 in 4.0 mi WSW 15.0 mph - N/A   Overcast
4:53 AM -27.0 °F -55.7 °F -32.1 °F 77% 30.72 in 4.0 mi WSW 17.3 mph - N/A   Haze
5:35 AM -25.6 °F -54.6 °F -29.2 °F 83% 30.72 in 2.5 mi WSW 18.4 mph - N/A   Overcast
5:53 AM -26.0 °F -53.5 °F -29.9 °F 81% 30.73 in 3.0 mi WSW 16.1 mph - N/A   Overcast
6:12 AM -25.6 °F -52.1 °F -29.2 °F 83% 30.72 in 3.0 mi WSW 15.0 mph - N/A   Haze
6:21 AM -25.6 °F -53.0 °F -29.2 °F 83% 30.72 in 3.0 mi WSW 16.1 mph - N/A   Haze
6:53 AM -24.0 °F -50.1 °F -29.0 °F 77% 30.74 in 4.0 mi WSW 15.0 mph - N/A   Haze
7:53 AM -23.1 °F -47.1 °F -27.0 °F 82% 30.75 in 6.0 mi WSW 12.7 mph - N/A   Overcast
8:53 AM -22.0 °F -45.7 °F -26.0 °F 82% 30.77 in 6.0 mi WSW 12.7 mph - N/A   Overcast
9:53 AM -24.0 °F -48.2 °F -27.9 °F 82% 30.78 in 5.0 mi WSW 12.7 mph - N/A   Mostly Cloudy
10:28 AM -23.8 °F -45.8 °F -27.4 °F 83% 30.79 in 3.0 mi WSW 10.4 mph - N/A   Mist
10:53 AM -22.0 °F - -26.0 °F 82% 30.80 in - North - - N/A   Unknown
11:53 AM -20.9 °F - -25.1 °F 81% 30.82 in 7.0 mi North - - N/A   Unknown
12:14 PM -20.2 °F - -25.6 °F 76% 30.82 in 6.0 mi North - - N/A   Overcast
12:53 PM -20.0 °F - -24.0 °F 82% 30.84 in 6.0 mi North - - N/A   Overcast
1:37 PM -20.2 °F - -25.6 °F 76% 30.85 in 9.0 mi North - - N/A   Overcast
1:53 PM -20.9 °F - -25.1 °F 81% 30.86 in 7.0 mi North - - N/A   Overcast
2:53 PM -20.9 °F -42.2 °F -25.1 °F 81% 30.87 in 8.0 mi WSW 10.4 mph - N/A   Overcast
3:51 PM -20.2 °F -38.8 °F -23.8 °F 83% 30.87 in 10.0 mi WSW 8.1 mph - N/A   Overcast
3:53 PM -20.0 °F -38.6 °F -24.0 °F 82% 30.88 in 10.0 mi West 8.1 mph - N/A   Overcast
4:53 PM -20.9 °F -39.7 °F -25.1 °F 81% 30.89 in 10.0 mi West 8.1 mph - N/A   Overcast
5:53 PM -22.0 °F -39.4 °F -26.0 °F 82% 30.90 in 7.0 mi WSW 6.9 mph - N/A   Overcast
6:53 PM -20.9 °F -38.1 °F -25.1 °F 81% 30.92 in 10.0 mi West 6.9 mph - N/A   Overcast
7:53 PM -22.0 °F -39.4 °F -26.0 °F 82% 30.93 in 5.0 mi WNW 6.9 mph - N/A   Overcast
8:53 PM -22.0 °F - -26.0 °F 82% 30.95 in 9.0 mi Calm Calm - N/A   Overcast
9:53 PM -22.0 °F - -26.0 °F 82% 30.96 in 4.0 mi Calm Calm - N/A   Overcast
10:53 PM -23.1 °F - -27.9 °F 78% 30.98 in 10.0 mi Calm Calm - N/A   Overcast
11:33 PM -23.8 °F - -27.4 °F 83% 30.98 in 10.0 mi Calm Calm - N/A   Scattered Clouds
11:53 PM -24.0 °F - -29.0 °F 77% 31.00 in 10.0 mi Calm Calm - N/A   Clear